Location: Newark
(59.4564°N, 26.6917°E)
Time: 02:56:31
(UTC+00:00)

SR - Pass Details

Date: 24 November 2019
Orbit: 573 x 882 km, 66.7° (Epoch: 11 December)

Event Time Altitude Azimuth Distance (km) Brightness Sun altitude
Rises 13:07:11 0° 227° (SW) 3,291 ? 1.3°
Reaches altitude 10° 13:09:32 10° 227° (SW) 2,405 ? 1.1°
Maximum altitude 13:15:09 88° 142° (SE) 862 ? 0.6°
Drops below altitude 10° 13:21:07 10° 51° (NE) 2,543 ? 0.1°
Enters shadow 13:23:34 - 51° (NE) 3,461 ? -0.1°
Sets 13:23:39 0° 51° (NE) 3,493 - -0.1°
